User: anonymous   Login
Location: Im Fang
(46.6019°N, 7.2397°E)
Time: 12:52:51
(UTC+00:00)
Language:

ALOS - Orbit

View from above orbital plane
View from above orbital plane
View from above satellite
View from above satellite

Ground track
Ground track

The orbit data is extracted from the following two-line orbital elements,

1 28931U 06002A   20053.05405916  .00000084  00000-0  25054-4 0  9993
2 28931  97.8363  44.5469 0002115  78.0866 282.0571 14.62683617750682
Epoch (UTC): 22 February 2020 01:17:50
Eccentricity: 0.0002115
inclination: 97.8363°
perigee height: 683 km
apogee height: 686 km
right ascension of ascending node: 44.5469°
argument of perigee: 78.0866°
revolutions per day: 14.62683617
mean anomaly at epoch: 282.0571°
orbit number at epoch: 75068

The dashed part of the orbit path shows where the satellite is in the earth's shadow,  

DLR